Погода Докшицы

Погода Докшицы : погода сейчас, прогноз погоды и архив. Всё, что Вы хотите узнать о погоде Докшицы!

Поиск расширенной информации на нашем сайте:

Другие новости

Новости СМИ2

Главная страница сайта

Новости сайта

03.07.2017

Напоминаем, что на нашем специализированном сайте Метеоцентр.Азия вы можете получить высокодетализированные автоматические прогнозы погоды по пунктам России, СНГ и мира в авиационном формате (включающие направление и скорость ветра, видимость, явления погоды, количество и форму облачности, нижнюю и верхнюю границу облачности).

Рекомендуем: Изучение английского на www.newmetod.ru

Погода Докшицы - сегодня

Время (UTC), дата Ветер
(°,м/с) 
Видим.   Явления Облачность Т
(°С)
Тd
(°С)
f(%) Тe
(°С)
Pmin
(гПа)
dP
(гПа)
Po
(мм)
O2
(г/м3)
Тmin Tmax R s Состояние
почвы
18 13.05.18 140 (ЮВ) 2{10}  20000 м    3/0 верхняя 
[Ci fib]
+16.4 +3.8 43 +17  1020.2  0.5  748  284    +23.4       
12 14.05.18 100 (В) 6-10{12}  20000 м    8/8 800 м 
[Cu med, cong]
+21 +5 35 +21  1020.3  -0.6  748  279           
18 14.05.18 080 (В) 20000 м    8/0 средняя 
[Ac und]
+18.6 +7.2 47 +20  1019  -0.5  747  281    +22.1       
06 15.05.18 080 (В) 11000 м  в посл. час ливневой дождь  9/9 800 м кучево-дожд. 
[Cb calv]
+12.2 +11.6 96 +16  1018.6  -0.3  747  286  +11.7    11     
09 15.05.18 140 (ЮВ) 20000 м    9/9 750 м 
[Sc]
+14.2 +11.7 85 +19  1018.1  -0.3  746  284           
12 15.05.18 210 (ЮЗ) 20000 м    8/8 800 м 
[Sc]
+17.5 +10.1 62 +19  1017.5  -0.3  746  281           
15 15.05.18 240 (ЮЗ) 20000 м    9/9 750 м кучево-дожд. 
[Cb calv]
+17.4 +9.4 59 +18  1017.1  -0.4  746  281           
18 15.05.18 110 (В) 1{11}  20000 м  {гроза, ливн. осадки}  4/0 верхняя 
[Ci ing]
+12.3 +10.3 88 +16  1017.6  0.1  746  286    +18.9     
06 16.05.18 070 (В) 20000 м    3/0 средняя 
[Ac und]
+15.1 +10.9 76 +19  1014.9  -0.9  744  282  +6.2         
09 16.05.18 160 (Ю) 20000 м    6/6 800 м 
[Cu med, cong]
+18.7 +12.4 67 +24  1014.8  0.2  744  278           
12 16.05.18 160 (Ю) 20000 м    8/8 800 м 
[Cu med, cong]
+20.3 +12.2 60 +25  1013.6  -1  743  277           
15 16.05.18 140 (ЮВ) 20000 м    8/8 800 м 
[Cu med, cong]
+19.5 +12.2 63 +24  1013  -0.7  743  277           
18 16.05.18 110 (В) 20000 м    9/0 средняя 
[Ac und]
+17.7 +13.1 74 +25  1012.5  -0.6  743  278    +20.6       
09 17.05.18 150 (ЮВ) 16000 м    9/9 800 м 
[Sc]
+19.2 +14.6 75 +28  1008.2  739  275           
12 17.05.18 200 (Ю) 8-12{14}  20000 м    6/6 800 м 
[Cu med, cong]
+18.4 +10.1 58 +20  1008.8  0.5  740  277           
18 17.05.18 тихо ()   20000 м    3/3 600 м 
[Sc diur, vesp]
+16.6 +11.1 70 +20  1009.6  0.3  740  279    +20.5       
06 18.05.18 140 (ЮВ) 20000 м    8/0 средняя 
[Ac und]
+17.8 +11.7 67 +23  1008.1  -0.1  739  277  +8.7         
09 18.05.18 080 (В) 20000 м    8/8 800 м 
[Cu med, cong]
+19.2 +10.3 56 +23  1007.8  -0.2  739  276           
12 18.05.18 260 (З) 20000 м  гроза без осадков{ливн. осадки}  9/9 800 м кучево-дожд. 
[Cb calv]
+18.7 +12.1 65 +23  1007.7  -0.1  739  276           
18 18.05.18 340 (С) 20000 м  {гроза}  8/0 верхняя 
[Ci fib]
+16.2 +11.5 74 +21  1007.7  0.6  739  279    +20.6  0.1     
06 19.05.18 010 (С) 20000 м    9/9 360 м 
[Sc]
+13.4 +11.6 89 +17  1011.4  2.3  741  283  +12.3         
12 19.05.18 350 (С) 6-10{11}  20000 м    6/6 720 м 
[Cu med, cong]
+17.5 +5.9 46 +17  1013.7  0.5  743  281           
15 19.05.18 360 (С) 6-10{11}  20000 м    ясно 
+17.5 +1.3 34 +17  1014.9  1.2  744  282           
18 19.05.18 360 (С) 2{11}  20000 м    3/0 верхняя 
[Ci fib]
+13.9 +2.2 45 +14  1016.9  1.6  745  285    +18.1       
06 20.05.18 330 (СЗ) 20000 м    ясно 
+12.3 +4.9 61 +12  1023.4  1.4  750  288  +3.5         
Время (UTC), дата Ветер
(°,м/с) 
Видим.   Явления Облачность Т
(°С)
Тd
(°С)
f(%) Тe
(°С)
Pmin
(гПа)
dP
(гПа)
Po
(мм)
O2
(г/м3)
Тmin Tmax R s Состояние
почвы

Для получения пояснительной информации подведите курсор к названию столбца.

ПОГОДА Докшицы - архив

Всё, что Вы хотите узнать о погоде Докшицы - удобно и подробно!

Выберите нужную дату (начиная с 1 января 2015* года) и нажмите кнопку "Найти".
Будут отображены архивные сводки погоды по пункту Докшицы, начиная с указанной даты.


Отображать данные в формате CSV (для использования в таблицах Excel)


Внимание! Наш архив погоды предназначен исключительно для личного некоммерческого использования в познавательных целях. Если Вам необходимы официальные справки о состоянии погоды (для производственных, юридических, коммерческих и т.п. целей), обращайтесь в органы Росгидромета.

*Примечание: данная дата относится к архиву по метеостанциям СССР (Россия, СНГ, Балтия).
Архив по метеостанциям Зарубежной Европы и Азии (кроме Китая) хранится 10 дней, по другим регионам земного шара (Китай, Африка, Америка, Австралия, Океания) - 1 день.

Докшицы - район местоположения метеостанции


Название, широта, долгота, высота метеостанции:
Докшицы 54.9°ш. 27.8°д. 193 м над ур. моря [Беларусь]

Дополнительная информация

В oтличие oт бoльшинства пoгoдных сайтoв мы публикуем пoдрoбную метеoинфoрмацию в детальнoм прoфессиoнальнoм фoрмате.

Характеристики температуры и влажнoсти вoздуха измеряются на высoте 2 м в тени вдали oт зданий и деревьев.
Скoрoсть ветра измеряется на высoте 10 м (на урoвне рoста челoвека скoрoсть ветра ниже в 1.5-2 раза). Если метеoстанция нахoдится в гoрoде или в лесу, тo скoрoсть ветра занижена на 2-4 м/с пo сравнению с oткрытым местoм. Скoрoсть ветра над акватoриями крупных рек и oзёр, а также на вершинах хoлмoв на 2-5 м/с выше, чем в oбычных услoвиях.
Атмoсфернoе давление в разных тoчках местнoсти мoжет значительнo oтличаться oт давления на метеoстанции, в зависимoсти oт услoвий рельефа (при пoдъёме на 10 м давление пoнижается примернo на 1 мм рт.ст.).